Weather History for Tulsa Jones, OK

Change the Weather History Date:

Thursday, December 8, 2011

  Actual Average (KTUL) Record (KTUL)
Temperature  
Mean Temperature 37 °F 41 °F  
Max Temperature 50 °F 51 °F 73 °F (1966)
Min Temperature 24 °F 31 °F -3 °F (1917)
Degree Days  
Heating Degree Days 28 24  
Month to date heating degree days 185  
Since 1 July heating degree days 821  
Moisture  
Dew Point 24 °F    
Average Humidity 69    
Maximum Humidity 85    
Minimum Humidity 38    
Precipitation  
Precipitation 0.00 in 0.09 in 1.01 in (1956)
Month to date precipitation 0.69  
Year to date precipitation 39.17  
Sea Level Pressure  
Sea Level Pressure 30.23 in    
Wind  
Wind Speed 1 mph (SSE)    
Max Wind Speed 8 mph    
Max Gust Speed -    
Visibility 10 miles    
Events      
T = Trace of Precipitation, MM = Missing Value Source: NWS Daily Summary

Daily Weather History Graph

Daily Weather History Graph

Search for Another Location

Airport:

Trip Planner

Search our weather history database for the weather conditions in past years. The results will help you decide how hot, cold, wet, or windy it might be!

Date:

Astronomy

Dec. 08, 2011 Rise Set
Actual Time 7:21 AM CST 5:09 PM CST
Civil Twilight 6:53 AM CST 5:37 PM CST
Nautical Twilight 6:21 AM CST 6:09 PM CST
Astronomical Twilight 5:50 AM CST 6:41 PM CST
Moon 3:49 PM CST (12/8) 5:35 AM CST (12/8)
Length of Visible Light 10h 44m
Length of Day
9h 47m
Waxing Gibbous, 97% of the Moon is Illuminated
Dec 8
Waxing Gibbous
Dec 10
Full
Dec 17
Last Quarter
Dec 24
New
Jan 1
First Quarter

Hourly Weather History & Observations

Time (CST) Temp. Windchill Dew Point Humidity Pressure Visibility Wind Dir Wind Speed Gust Speed Precip Events Conditions
12:53 AM 25.0 °F - 19.9 °F 81% 30.26 in 10.0 mi Calm Calm - N/A   Clear
1:53 AM 25.0 °F - 19.9 °F 81% 30.26 in 10.0 mi Calm Calm - N/A   Clear
2:53 AM 24.1 °F - 19.9 °F 84% 30.26 in 10.0 mi Calm Calm - N/A   Clear
3:53 AM 25.0 °F - 19.0 °F 78% 30.27 in 10.0 mi Calm Calm - N/A   Clear
4:53 AM 24.1 °F - 19.9 °F 84% 30.27 in 10.0 mi Calm Calm - N/A   Clear
5:53 AM 24.1 °F - 19.9 °F 84% 30.27 in 10.0 mi Calm Calm - N/A   Clear
6:53 AM 25.0 °F - 21.0 °F 85% 30.28 in 10.0 mi Calm Calm - N/A   Clear
7:53 AM 26.1 °F - 21.9 °F 84% 30.28 in 10.0 mi Calm Calm - N/A   Clear
8:53 AM 30.9 °F 27.5 °F 24.1 °F 76% 30.30 in 10.0 mi SSE 3.5 mph - N/A   Clear
9:53 AM 35.1 °F 31.0 °F 26.1 °F 70% 30.30 in 10.0 mi South 4.6 mph - N/A   Clear
10:53 AM 41.0 °F 36.4 °F 27.0 °F 57% 30.30 in 10.0 mi South 6.9 mph - N/A   Clear
11:53 AM 46.0 °F 43.1 °F 26.1 °F 46% 30.25 in 10.0 mi South 5.8 mph - N/A   Clear
12:53 PM 48.0 °F - 27.0 °F 44% 30.20 in 10.0 mi SE 8.1 mph - N/A   Clear
1:53 PM 48.9 °F - 25.0 °F 39% 30.18 in 10.0 mi South 6.9 mph - N/A   Clear
3:53 PM 50.0 °F - 25.0 °F 38% 30.15 in 10.0 mi SSE 5.8 mph - N/A   Clear
4:53 PM 46.9 °F - 25.0 °F 42% 30.14 in 10.0 mi ESE 5.8 mph - N/A   Clear
5:53 PM 42.1 °F - 25.0 °F 51% 30.16 in 10.0 mi Calm Calm - N/A   Clear
6:53 PM 35.1 °F - 26.1 °F 70% 30.19 in 10.0 mi Calm Calm - N/A   Clear
7:53 PM 35.1 °F - 26.1 °F 70% 30.20 in 10.0 mi Calm Calm - N/A   Clear
8:53 PM 34.0 °F - 26.1 °F 73% 30.21 in 10.0 mi Calm Calm - N/A   Clear
9:53 PM 30.9 °F - 25.0 °F 79% 30.22 in 10.0 mi Calm Calm - N/A   Clear
10:53 PM 28.9 °F - 24.1 °F 82% 30.23 in 10.0 mi Calm Calm - N/A   Clear
11:53 PM 30.0 °F - 24.1 °F 79% 30.22 in 10.0 mi Calm Calm - N/A   Clear